User: anonymous   Login
Location: Caltech
(34.1382°N, 118.1253°W)
Time: 21:31:42
(UTC-07:00)
Language:

Cosmos 2251 Rocket - Orbit

View from above orbital plane
View from above orbital plane
View from above satellite
View from above satellite

Ground track
Ground track

The orbit data is extracted from the following two-line orbital elements,

1 22676U 93036B   14295.14728499  .00000229  00000-0  91691-4 0  3547
2 22676 074.0419 153.8592 0018130 055.9058 304.3811 14.33663654116456
Epoch (UTC): 22 October 2014 03:32:05
Eccentricity: 0.0018130
inclination: 74.0419°
perigee height: 766 km
apogee height: 792 km
right ascension of ascending node: 153.8592°
argument of perigee: 55.9058°
revolutions per day: 14.33663654
mean anomaly at epoch: 304.3811°
orbit number at epoch: 11645

The dashed part of the orbit path shows where the satellite is in the earth's shadow,  

DLR